• Join FlightAware (Why Join?)
  • Login
  • US Flag GB Flag 
11:31 EDT


 

Airport Tracker/Info


-or-


 

Live Flight TrackerFlight Track Log ✈ N415JA ✈ 23-Feb-2014 ✈ KTMB - MYNN / NAS

Flight Track Log - Related Links

Times and Time Zones

All times are in EST time to prevent confusion due to time zone crossing. See the N415JA flight status page for this flight to view local times or setup timezone preferences in your user account.

Time Position Orientation Groundspeed Altitude Reporting Facility
EST Latitude Longitude Course Direction KTS MPH feet Rate Location/Type
17:03 25.6444 -80.4175 81° East 136 157 600  Level Miami Center
17:05 25.6592 -80.3167 81° East 228 262 2,300 1,260 Climbing Miami Center
17:06 25.6633 -80.2383 87° East 253 291 4,000 2,280 Climbing Miami Center
17:06 25.6567 -80.1644 96° East 270 311 6,800 1,440 Climbing Miami Center
17:08 25.6461 -80.0672 97° East 276 318 7,000 60 Climbing Miami Center
17:08 25.6431 -80.0119 93° East 279 321 7,000 1,740 Level Miami Center
17:09 25.6344 -79.9311 97° East 312 359 9,800 2,400 Climbing Miami Center
17:10 25.6239 -79.8411 97° East 307 353 11,900 1,980 Climbing Miami Center
17:11 25.6111 -79.7347 98° East 322 371 13,800 1,260 Climbing Miami Center
17:12 25.5797 -79.6303 108° East 345 397 14,500 600 Climbing Miami Center
17:13 25.5292 -79.5417 122° Southeast 345 397 15,000 240 Climbing Miami Center
17:14 25.5039 -79.4328 104° East 345 397 15,000  Level Miami Center
17:15 25.4831 -79.3150 101° East 364 419 15,000  Level Miami Center
17:16 25.4872 -79.1931 88° East 385 443 15,000  Level Miami Center
17:17 25.4953 -79.0714 86° East 385 443 15,000  Level Miami Center
17:18 25.5033 -78.9472 86° East 385 443 15,000  Level Miami Center
17:19 25.5111 -78.8389 85° East 385 443 15,000  Level Miami Center
17:20 25.5147 -78.7147 88° East 390 449 15,000  Level Miami Center
17:21 25.5247 -78.5928 85° East 390 449 15,000  Level Miami Center
17:22 25.5367 -78.4642 84° East 389 448 15,000  Level Miami Center
17:23 25.5400 -78.3467 88° East 384 442 15,000  Level Miami Center
17:24 25.5514 -78.2294 84° East 384 442 15,000  Level Miami Center
17:25 25.5525 -78.1142 89° East 379 436 15,000  Level Miami Center
17:26 25.5175 -78.0308 115° Southeast 366 421 15,000  Level Miami Center
17:27 25.4369 -77.9311 132° Southeast 358 412 15,000 -1,200 Level Miami Center
17:28 25.3747 -77.8547 132° Southeast 346 398 12,700 -2,340 Descending Miami Center